When you browse on this site, cookies collect data to enhance your experience and personalize the content and advertising you see.
Visit our Privacy Policy to learn more. By continuing to use the site, you agree to this use of cookies and data.
  • en Suisse
  • Liste des pays
  • À 7 jours
  • Température de l'eau
  • Carte satellitaire
  • Carte météo
  • Widgets météo
  • user-avatar
    Se connecter

    Météo par heure à Efimovka

    Ce jour, 18 Juin, Mardi

    Heure Température Précipitation Vent Pression Humidité
    00:00 +17°C° 0 mm 2 m/s 746 mmHg 88%
    01:00 +17°C° 0 mm 2 m/s 746 mmHg 89%
    02:00 +17°C° 0 mm 2 m/s 746 mmHg 86%
    03:00 +17°C° 0.3 mm 2 m/s 746 mmHg 87%
    04:00 +17°C° 0.3 mm 2 m/s 746 mmHg 88%
    05:00 +18°C° 0.3 mm 2 m/s 746 mmHg 89%
    06:00 +19°C° 0.7 mm 2 m/s 746 mmHg 87%
    07:00 +20°C° 0.7 mm 2 m/s 746 mmHg 85%
    08:00 +21°C° 0.7 mm 2 m/s 746 mmHg 84%
    09:00 +23°C° 0.9 mm 2 m/s 746 mmHg 80%
    10:00 +25°C° 0.9 mm 2 m/s 745 mmHg 76%
    11:00 +26°C° 0.9 mm 2 m/s 745 mmHg 72%
    12:00 +26°C° 0.3 mm 3 m/s 745 mmHg 71%
    13:00 +26°C° 0.3 mm 3 m/s 745 mmHg 71%
    14:00 +26°C° 0.3 mm 4 m/s 745 mmHg 70%
    15:00 +26°C° 0.5 mm 4 m/s 745 mmHg 73%
    16:00 +26°C° 0.5 mm 3 m/s 745 mmHg 75%
    17:00 +25°C° 0.5 mm 3 m/s 745 mmHg 77%
    18:00 +24°C° 0.2 mm 3 m/s 745 mmHg 81%
    19:00 +21°C° 0.2 mm 3 m/s 745 mmHg 84%
    20:00 +19°C° 0.2 mm 3 m/s 745 mmHg 87%
    21:00 +19°C° 0 mm 3 m/s 746 mmHg 88%
    22:00 +18°C° 0 mm 3 m/s 746 mmHg 89%
    23:00 +17°C° 0 mm 3 m/s 746 mmHg 90%

    Demain, 19 Juin, Mercredi

    Heure Température Précipitation Vent Pression Humidité
    00:00 +17°C° 0 mm 3 m/s 746 mmHg 90%
    01:00 +16°C° 0 mm 3 m/s 747 mmHg 91%
    02:00 +16°C° 0 mm 3 m/s 747 mmHg 92%
    03:00 +16°C° 0 mm 3 m/s 747 mmHg 91%
    04:00 +16°C° 0 mm 3 m/s 747 mmHg 89%
    05:00 +16°C° 0 mm 3 m/s 747 mmHg 88%
    06:00 +18°C° 0 mm 3 m/s 748 mmHg 83%
    07:00 +19°C° 0 mm 3 m/s 748 mmHg 78%
    08:00 +21°C° 0 mm 3 m/s 748 mmHg 73%
    09:00 +22°C° 0 mm 3 m/s 748 mmHg 67%
    10:00 +24°C° 0 mm 3 m/s 748 mmHg 62%
    11:00 +25°C° 0 mm 3 m/s 748 mmHg 56%
    12:00 +26°C° 0 mm 3 m/s 748 mmHg 55%
    13:00 +26°C° 0 mm 3 m/s 748 mmHg 54%
    14:00 +26°C° 0 mm 3 m/s 748 mmHg 53%
    15:00 +26°C° 0 mm 2 m/s 748 mmHg 57%
    16:00 +26°C° 0 mm 2 m/s 748 mmHg 60%
    17:00 +26°C° 0 mm 1 m/s 748 mmHg 63%
    18:00 +24°C° 0 mm 1 m/s 748 mmHg 67%
    19:00 +22°C° 0 mm 1 m/s 748 mmHg 72%
    20:00 +20°C° 0 mm 1 m/s 748 mmHg 76%
    21:00 +19°C° 0 mm 1 m/s 748 mmHg 78%
    22:00 +19°C° 0 mm 1 m/s 748 mmHg 79%
    23:00 +18°C° 0 mm 1 m/s 749 mmHg 80%

    Après-demain, 20 Juin, Jeudi

    Heure Température Précipitation Vent Pression Humidité
    00:00 +18°C° 0 mm 1 m/s 749 mmHg 81%
    01:00 +16°C° 0 mm 1 m/s 749 mmHg 81%
    02:00 +16°C° 0 mm 1 m/s 749 mmHg 81%
    03:00 +18°C° 0 mm 1 m/s 749 mmHg 81%
    04:00 +18°C° 0 mm 1 m/s 749 mmHg 81%
    05:00 +19°C° 0 mm 1 m/s 749 mmHg 81%
    06:00 +21°C° 0 mm 1 m/s 749 mmHg 77%
    07:00 +22°C° 0 mm 1 m/s 749 mmHg 72%
    08:00 +22°C° 0 mm 0 m/s 749 mmHg 68%
    09:00 +23°C° 0 mm 0 m/s 749 mmHg 63%
    10:00 +24°C° 0 mm 0 m/s 749 mmHg 58%
    11:00 +26°C° 0 mm 0 m/s 749 mmHg 53%
    12:00 +26°C° 0 mm 0 m/s 749 mmHg 52%
    13:00 +28°C° 0 mm 1 m/s 749 mmHg 50%
    14:00 +28°C° 0 mm 1 m/s 749 mmHg 48%
    15:00 +28°C° 0 mm 1 m/s 749 mmHg 52%
    16:00 +28°C° 0 mm 1 m/s 749 mmHg 57%
    17:00 +28°C° 0 mm 1 m/s 748 mmHg 61%
    18:00 +26°C° 0 mm 1 m/s 748 mmHg 64%
    19:00 +24°C° 0 mm 1 m/s 748 mmHg 67%
    20:00 +22°C° 0 mm 1 m/s 749 mmHg 70%
    21:00 +21°C° 0 mm 1 m/s 749 mmHg 73%
    22:00 +20°C° 0 mm 1 m/s 749 mmHg 76%
    23:00 +20°C° 0 mm 1 m/s 749 mmHg 79%

    21 Juin, Vendredi

    Heure Température Précipitation Vent Pression Humidité
    00:00 +19°C° 0 mm 1 m/s 749 mmHg 81%
    01:00 +19°C° 0 mm 1 m/s 749 mmHg 82%
    02:00 +18°C° 0 mm 1 m/s 749 mmHg 83%
    03:00 +19°C° 0 mm 1 m/s 750 mmHg 84%
    04:00 +20°C° 0 mm 1 m/s 750 mmHg 84%
    05:00 +20°C° 0 mm 1 m/s 750 mmHg 84%
    06:00 +22°C° 0 mm 1 m/s 750 mmHg 79%
    07:00 +23°C° 0 mm 2 m/s 750 mmHg 74%
    08:00 +25°C° 0 mm 2 m/s 750 mmHg 69%
    09:00 +26°C° 0 mm 2 m/s 750 mmHg 64%
    10:00 +26°C° 0 mm 2 m/s 750 mmHg 60%
    11:00 +27°C° 0 mm 2 m/s 750 mmHg 55%
    12:00 +27°C° 0 mm 2 m/s 750 mmHg 55%
    13:00 +28°C° 0 mm 2 m/s 749 mmHg 55%
    14:00 +28°C° 0 mm 2 m/s 749 mmHg 55%
    15:00 +28°C° 0 mm 2 m/s 749 mmHg 59%
    16:00 +28°C° 0 mm 2 m/s 749 mmHg 63%
    17:00 +27°C° 0 mm 2 m/s 749 mmHg 67%
    18:00 +26°C° 0 mm 2 m/s 749 mmHg 70%
    19:00 +24°C° 0 mm 2 m/s 749 mmHg 73%
    20:00 +21°C° 0 mm 2 m/s 749 mmHg 77%
    21:00 +20°C° 0 mm 2 m/s 749 mmHg 79%
    22:00 +20°C° 0 mm 2 m/s 749 mmHg 81%
    23:00 +19°C° 0 mm 2 m/s 749 mmHg 83%

    22 Juin, Samedi

    Heure Température Précipitation Vent Pression Humidité
    00:00 +19°C° 0 mm 2 m/s 749 mmHg 83%
    01:00 +18°C° 0 mm 2 m/s 749 mmHg 84%
    02:00 +18°C° 0 mm 2 m/s 749 mmHg 84%
    03:00 +18°C° 0 mm 2 m/s 749 mmHg 84%
    04:00 +19°C° 0 mm 2 m/s 749 mmHg 84%
    05:00 +19°C° 0 mm 3 m/s 749 mmHg 84%
    06:00 +21°C° 0 mm 3 m/s 749 mmHg 81%
    07:00 +22°C° 0 mm 3 m/s 749 mmHg 78%
    08:00 +25°C° 0 mm 3 m/s 749 mmHg 75%
    09:00 +26°C° 0 mm 4 m/s 749 mmHg 70%
    10:00 +27°C° 0 mm 4 m/s 749 mmHg 66%
    11:00 +28°C° 0 mm 4 m/s 749 mmHg 61%
    12:00 +28°C° 0 mm 4 m/s 749 mmHg 61%
    13:00 +29°C° 0 mm 4 m/s 749 mmHg 61%
    14:00 +29°C° 0 mm 5 m/s 749 mmHg 61%
    15:00 +28°C° 0 mm 4 m/s 748 mmHg 65%
    16:00 +28°C° 0 mm 4 m/s 748 mmHg 69%
    17:00 +28°C° 0 mm 4 m/s 748 mmHg 73%
    18:00 +26°C° 0 mm 3 m/s 748 mmHg 77%
    19:00 +25°C° 0 mm 3 m/s 748 mmHg 81%
    20:00 +22°C° 0 mm 3 m/s 748 mmHg 85%
    21:00 +22°C° 0 mm 3 m/s 748 mmHg 87%
    22:00 +21°C° 0 mm 3 m/s 748 mmHg 89%
    23:00 +21°C° 0 mm 3 m/s 749 mmHg 90%

    23 Juin, Dimanche

    Heure Température Précipitation Vent Pression Humidité
    00:00 +20°C° 0 mm 3 m/s 749 mmHg 91%
    01:00 +20°C° 0 mm 3 m/s 749 mmHg 92%
    02:00 +19°C° 0 mm 3 m/s 749 mmHg 93%
    03:00 +20°C° 0 mm 3 m/s 749 mmHg 92%
    04:00 +20°C° 0 mm 2 m/s 749 mmHg 91%
    05:00 +21°C° 0 mm 2 m/s 749 mmHg 90%
    06:00 +24°C° 0.1 mm 2 m/s 749 mmHg 84%
    07:00 +25°C° 0.1 mm 3 m/s 749 mmHg 79%
    08:00 +27°C° 0.1 mm 3 m/s 749 mmHg 73%
    09:00 +28°C° 0.1 mm 3 m/s 749 mmHg 68%
    10:00 +29°C° 0.1 mm 3 m/s 749 mmHg 63%
    11:00 +30°C° 0.1 mm 4 m/s 749 mmHg 57%
    12:00 +30°C° 0 mm 4 m/s 749 mmHg 57%
    13:00 +30°C° 0 mm 4 m/s 749 mmHg 57%
    14:00 +30°C° 0 mm 4 m/s 749 mmHg 56%
    15:00 +30°C° 0 mm 3 m/s 749 mmHg 61%
    16:00 +30°C° 0 mm 3 m/s 748 mmHg 65%
    17:00 +29°C° 0 mm 2 m/s 748 mmHg 70%
    18:00 +28°C° 0 mm 2 m/s 748 mmHg 73%
    19:00 +26°C° 0 mm 2 m/s 748 mmHg 76%
    20:00 +24°C° 0 mm 2 m/s 748 mmHg 79%
    21:00 +23°C° 0 mm 2 m/s 748 mmHg 81%
    22:00 +23°C° 0 mm 2 m/s 748 mmHg 83%
    23:00 +21°C° 0 mm 2 m/s 748 mmHg 84%
    Voir plus